Weather Roundup
Issued by NWS Chicago, IL

Home | Current Version | Previous Version | Graphics & Text | Print | Product List | Glossary Off
Versions: 1 2 3 4 5 6 7 8 9 10 11 12 13 14 15 16 17 18 19 20 21 22 23 24 25 26 27 28 29 30 31 32 33 34 35 36 37 38 39 40 41 42 43 44 45 46 47 48 49 50

000
NZUS59 KLOT 280110
HRRLOT

CHICAGO AREA WEATHER ROUNDUP
NATIONAL WEATHER SERVICE CHICAGO/ROMEOVILLE IL
700 PM CST TUE JAN 27 2015

NOTE: "FAIR" INDICATES FEW OR NO CLOUDS BELOW 12,000 FEET WITH NO
SIGNIFICANT WEATHER AND/OR OBSTRUCTIONS TO VISIBILITY.

* THESE STATIONS ARE NOT UNDER NWS QUALITY CONTROL. THEY ALSO MAY NOT
  REPORT WEATHER SUCH AS PRECIPITATION OR FOG.

ILZ005-006-012>014-019>023-280200-
NORTHEAST ILLINOIS

CITY           SKY/WX    TMP DP  RH WIND       PRES   REMARKS
OHARE          PTCLDY    25  16  68 NE6       30.24R WCI  18
MIDWAY         PTCLDY    28  17  63 N7        30.25R WCI  21
AURORA         CLEAR     25  20  81 N3        30.24R
LANSING*       CLEAR     26  18  72 N3        30.25R
JOLIET*        CLEAR     24  17  74 CALM      30.25R
WAUKEGAN       CLEAR     18  15  88 N3        30.24S
DUPAGE AIRPORT CLEAR     25  16  68 NE6       30.24R WCI  18
WHEELING       CLEAR     25  17  72 NE3       30.26R
KANKAKEE*      CLEAR     25  19  78 NE3       30.26R
MORRIS*        CLEAR     26  22  84 CALM      30.24R
LEWIS AIRPORT* CLEAR     25  17  70 E5        30.24S WCI  19
NORTHERLY IS     N/A     27  18  69 MISG        N/A
$$

WIZ051-052-058>065-066-070>072-280200-
SOUTHEAST WISCONSIN

CITY           SKY/WX    TMP DP  RH WIND       PRES   REMARKS
MILWAUKEE      MOCLDY    27  17  66 N3        30.25R
KENOSHA*       CLEAR     22  16  78 NE3       30.25R
RACINE*        CLOUDY    26  17  68 N6        30.26S WCI  19
BURLINGTON     PTCLDY    20  15  79 CALM      30.24S
WAUKESHA       CLOUDY    23  16  74 E3        30.24S
WEST BEND      CLOUDY    27  19  74 CALM      30.23S
$$

INZ001>003-010>013-019-020-280200-
NORTHWEST INDIANA

CITY           SKY/WX    TMP DP  RH WIND       PRES   REMARKS
GARY*          MOCLDY    28  16  59 N14       30.26R WCI  17
MICHIGAN CITY* NOT AVBL
RENSSELAER*    NOT AVBL
VALPARAISO     CLEAR     23  14  68 CALM      30.24R
$$

LMZ740>746-280200-
SOUTHERN LAKE MICHIGAN

STATION/POSITION TIME  SKY/WX   TEMP WIND        PRES    VSBY
                                AIR  DIR/SP/G
                 (UTC)          (F)  (DEG/KT/KT) (MB)    (MI)
HARRISON CRIB    0100            27   10/ 11/ 13   N/A
BURNHAM HARBOR   0100            26  350/  9/ 10   N/A
CALUMET HARBOR   0100            27  360/  6/ 10   N/A
BURNS HARBOR     NOT AVBL
MICHIGAN CITY    0100            27  360/ 11/ 14   N/A
$$

ABBREVIATIONS USED IN REMARKS
   TC - TEMPERATURE IN CELSIUS
  WCI - WIND CHILL INDEX
   HX - HEAT INDEX
  VSB - VISIBILITY
$$


USA.gov is the U.S. government's official web portal to all federal, state and local government web resources and services.